Time,TemperatureF,DewpointF,PressureIn,WindDirection,WindDirectionDegrees,WindSpeedMPH,WindSpeedGustMPH,Humidity,HourlyPrecipIn,Conditions,Clouds,dailyrainin,SoftwareType,DateUTC
2013-12-28 00:08:00,26.0,24.3,30.20,ENE,67,0.0,0.0,93,0.00,,,-99.99,Weather View 32 v60,2013-12-28 06:08:00,
2013-12-28 00:14:00,27.0,24.5,30.19,ENE,67,0.0,0.0,90,0.00,,,-99.99,Weather View 32 v60,2013-12-28 06:14:00,
2013-12-28 00:29:00,25.0,23.3,30.19,ENE,67,0.0,0.0,93,0.00,,,-99.99,Weather View 32 v60,2013-12-28 06:29:00,
2013-12-28 00:44:00,24.0,22.5,30.20,ENE,67,0.0,0.0,94,0.00,,,-99.99,Weather View 32 v60,2013-12-28 06:44:00,
2013-12-28 00:59:00,24.0,22.3,30.19,ENE,67,0.0,0.0,93,0.00,,,-99.99,Weather View 32 v60,2013-12-28 06:59:00,
2013-12-28 01:09:00,24.0,22.3,30.19,ENE,67,0.0,0.0,93,0.00,,,-99.99,Weather View 32 v60,2013-12-28 07:09:00,
2013-12-28 01:14:00,24.0,22.3,30.19,ENE,67,0.0,0.0,93,0.00,,,-99.99,Weather View 32 v60,2013-12-28 07:14:00,
2013-12-28 01:29:00,24.0,22.3,30.18,ENE,67,0.0,0.0,93,0.00,,,-99.99,Weather View 32 v60,2013-12-28 07:29:00,
2013-12-28 01:44:00,24.0,22.3,30.18,ENE,67,0.0,0.0,93,0.00,,,-99.99,Weather View 32 v60,2013-12-28 07:44:00,
2013-12-28 01:59:00,23.0,21.8,30.17,ENE,67,0.0,0.0,95,0.00,,,-99.99,Weather View 32 v60,2013-12-28 07:59:00,
2013-12-28 02:09:00,23.0,21.8,30.17,ENE,67,0.0,0.0,95,0.00,,,-99.99,Weather View 32 v60,2013-12-28 08:09:00,
2013-12-28 02:29:00,24.0,21.5,30.16,ENE,67,0.0,0.0,90,0.00,,,-99.99,Weather View 32 v60,2013-12-28 08:29:00,
2013-12-28 02:44:00,23.0,21.8,30.16,ENE,67,0.0,0.0,95,0.00,,,-99.99,Weather View 32 v60,2013-12-28 08:44:00,
2013-12-28 02:59:00,22.0,20.8,30.16,ENE,67,0.0,0.0,95,0.00,,,-99.99,Weather View 32 v60,2013-12-28 08:59:00,
2013-12-28 03:00:00,22.0,20.8,30.16,ENE,67,0.0,0.0,95,0.00,,,-99.99,Weather View 32 v60,2013-12-28 09:00:00,
2013-12-28 03:14:00,22.0,20.5,30.16,ENE,67,0.0,0.0,94,0.00,,,-99.99,Weather View 32 v60,2013-12-28 09:14:00,
2013-12-28 03:29:00,23.0,21.3,30.15,ENE,67,0.0,0.0,93,0.00,,,-99.99,Weather View 32 v60,2013-12-28 09:29:00,
2013-12-28 03:44:00,25.0,22.7,30.13,ENE,67,0.0,0.0,91,0.00,,,-99.99,Weather View 32 v60,2013-12-28 09:44:00,
2013-12-28 03:59:00,25.0,23.5,30.13,ENE,67,0.0,0.0,94,0.00,,,-99.99,Weather View 32 v60,2013-12-28 09:59:00,
2013-12-28 04:00:00,25.0,23.5,30.13,ENE,67,0.0,0.0,94,0.00,,,-99.99,Weather View 32 v60,2013-12-28 10:00:00,
2013-12-28 04:14:00,25.0,23.5,30.12,ENE,67,0.0,0.0,94,0.00,,,-99.99,Weather View 32 v60,2013-12-28 10:14:00,
2013-12-28 04:29:00,24.0,22.5,30.13,ENE,67,0.0,0.0,94,0.00,,,-99.99,Weather View 32 v60,2013-12-28 10:29:00,
2013-12-28 04:44:00,23.0,21.8,30.12,ESE,112,0.0,0.0,95,0.00,,,-99.99,Weather View 32 v60,2013-12-28 10:44:00,
2013-12-28 04:59:00,25.0,23.3,30.12,ESE,112,0.0,0.0,93,0.00,,,-99.99,Weather View 32 v60,2013-12-28 10:59:00,
2013-12-28 05:00:00,25.0,23.3,30.12,ESE,112,0.0,0.0,93,0.00,,,-99.99,Weather View 32 v60,2013-12-28 11:00:00,
2013-12-28 05:14:00,25.0,23.5,30.11,ESE,112,0.0,0.0,94,0.00,,,-99.99,Weather View 32 v60,2013-12-28 11:14:00,
2013-12-28 05:29:00,25.0,23.5,30.10,ESE,112,0.0,0.0,94,0.00,,,-99.99,Weather View 32 v60,2013-12-28 11:29:00,
2013-12-28 05:44:00,24.0,22.5,30.10,SSW,202,0.0,0.0,94,0.00,,,-99.99,Weather View 32 v60,2013-12-28 11:44:00,
2013-12-28 05:59:00,25.0,23.5,30.10,SSW,202,0.0,0.0,94,0.00,,,-99.99,Weather View 32 v60,2013-12-28 11:59:00,
2013-12-28 06:00:00,25.0,23.5,30.10,SSW,202,0.0,0.0,94,0.00,,,-99.99,Weather View 32 v60,2013-12-28 12:00:00,
2013-12-28 06:14:00,25.0,23.3,30.10,SSW,202,0.0,0.0,93,0.00,,,-99.99,Weather View 32 v60,2013-12-28 12:14:00,
2013-12-28 06:29:00,25.0,23.5,30.10,SSW,202,0.0,0.0,94,0.00,,,-99.99,Weather View 32 v60,2013-12-28 12:29:00,
2013-12-28 06:44:00,24.0,22.5,30.09,SW,225,0.0,0.0,94,0.00,,,-99.99,Weather View 32 v60,2013-12-28 12:44:00,
2013-12-28 06:59:00,24.0,22.5,30.10,SW,225,0.0,0.0,94,0.00,,,-99.99,Weather View 32 v60,2013-12-28 12:59:00,
2013-12-28 07:00:00,24.0,22.5,30.10,SW,225,0.0,0.0,94,0.00,,,-99.99,Weather View 32 v60,2013-12-28 13:00:00,
2013-12-28 07:14:00,25.0,23.5,30.08,WSW,247,0.0,0.0,94,0.00,,,-99.99,Weather View 32 v60,2013-12-28 13:14:00,
2013-12-28 07:29:00,25.0,23.5,30.08,WSW,247,0.0,0.0,94,0.00,,,-99.99,Weather View 32 v60,2013-12-28 13:29:00,
2013-12-28 07:44:00,25.0,23.5,30.08,SSW,202,0.0,0.0,94,0.00,,,-99.99,Weather View 32 v60,2013-12-28 13:44:00,
2013-12-28 07:59:00,25.0,23.5,30.08,SSW,202,0.0,0.0,94,0.00,,,-99.99,Weather View 32 v60,2013-12-28 13:59:00,
2013-12-28 08:00:00,25.0,23.5,30.08,SSW,202,0.0,0.0,94,0.00,,,-99.99,Weather View 32 v60,2013-12-28 14:00:00,
2013-12-28 08:14:00,25.0,23.5,30.07,WSW,247,0.0,0.0,94,0.00,,,-99.99,Weather View 32 v60,2013-12-28 14:14:00,
2013-12-28 08:29:00,26.0,24.3,30.06,SW,225,0.0,0.0,93,0.00,,,-99.99,Weather View 32 v60,2013-12-28 14:29:00,
2013-12-28 08:44:00,29.0,27.0,30.05,SSW,202,0.0,0.0,92,0.00,,,-99.99,Weather View 32 v60,2013-12-28 14:44:00,
2013-12-28 08:59:00,30.0,27.4,30.04,South,180,0.0,1.0,90,0.00,,,-99.99,Weather View 32 v60,2013-12-28 14:59:00,
2013-12-28 09:00:00,30.0,27.4,30.04,South,180,0.0,1.0,90,0.00,,,-99.99,Weather View 32 v60,2013-12-28 15:00:00,
2013-12-28 09:14:00,33.0,29.0,30.03,WSW,247,0.0,1.0,85,0.00,,,-99.99,Weather View 32 v60,2013-12-28 15:14:00,
2013-12-28 09:29:00,33.0,26.6,30.03,SSE,157,0.0,4.0,77,0.00,,,-99.99,Weather View 32 v60,2013-12-28 15:29:00,
2013-12-28 09:44:00,34.0,26.6,30.02,SW,225,1.0,5.0,74,0.00,,,-99.99,Weather View 32 v60,2013-12-28 15:44:00,
2013-12-28 09:59:00,36.0,26.8,30.01,West,270,5.0,10.0,69,0.00,,,-99.99,Weather View 32 v60,2013-12-28 15:59:00,
2013-12-28 10:14:00,37.0,26.7,30.00,WSW,247,0.0,12.0,66,0.00,,,-99.99,Weather View 32 v60,2013-12-28 16:14:00,
2013-12-28 10:29:00,38.0,26.1,29.99,WSW,247,1.0,12.0,62,0.00,,,-99.99,Weather View 32 v60,2013-12-28 16:29:00,
2013-12-28 10:44:00,40.0,26.8,29.98,SW,225,1.0,13.0,59,0.00,,,-99.99,Weather View 32 v60,2013-12-28 16:44:00,
2013-12-28 10:59:00,41.0,26.5,29.97,SW,225,6.0,13.0,56,0.00,,,-99.99,Weather View 32 v60,2013-12-28 16:59:00,
2013-12-28 11:14:00,43.0,26.6,29.96,SW,225,7.0,16.0,52,0.00,,,-99.99,Weather View 32 v60,2013-12-28 17:14:00,
2013-12-28 11:29:00,45.0,27.5,29.95,WSW,247,6.0,16.0,50,0.00,,,-99.99,Weather View 32 v60,2013-12-28 17:29:00,
2013-12-28 11:44:00,47.0,27.3,29.93,SW,225,6.0,16.0,46,0.00,,,-99.99,Weather View 32 v60,2013-12-28 17:44:00,
2013-12-28 11:59:00,48.0,26.5,29.91,WSW,247,2.0,16.0,43,0.00,,,-99.99,Weather View 32 v60,2013-12-28 17:59:00,
2013-12-28 12:14:00,50.0,27.8,29.90,SSW,202,0.0,16.0,42,0.00,,,-99.99,Weather View 32 v60,2013-12-28 18:14:00,
2013-12-28 12:29:00,53.0,28.0,29.87,WSW,247,2.0,15.0,38,0.00,,,-99.99,Weather View 32 v60,2013-12-28 18:29:00,
2013-12-28 12:44:00,54.0,27.6,29.86,West,270,5.0,15.0,36,0.00,,,-99.99,Weather View 32 v60,2013-12-28 18:44:00,
2013-12-28 12:59:00,55.0,27.1,29.85,SSW,202,4.0,15.0,34,0.00,,,-99.99,Weather View 32 v60,2013-12-28 18:59:00,
2013-12-28 13:14:00,57.0,27.4,29.83,SW,225,3.0,14.0,32,0.00,,,-99.99,Weather View 32 v60,2013-12-28 19:14:00,
2013-12-28 13:29:00,59.0,26.7,29.83,SSW,202,6.0,16.0,29,0.00,,,-99.99,Weather View 32 v60,2013-12-28 19:29:00,
2013-12-28 13:44:00,60.0,25.9,29.82,SW,225,11.0,16.0,27,0.00,,,-99.99,Weather View 32 v60,2013-12-28 19:44:00,
2013-12-28 13:59:00,60.0,24.9,29.82,SW,225,6.0,16.0,26,0.00,,,-99.99,Weather View 32 v60,2013-12-28 19:59:00,
2013-12-28 14:14:00,61.0,25.8,29.81,SW,225,8.0,16.0,26,0.00,,,-99.99,Weather View 32 v60,2013-12-28 20:14:00,
2013-12-28 14:29:00,62.0,25.7,29.81,SSW,202,0.0,16.0,25,0.00,,,-99.99,Weather View 32 v60,2013-12-28 20:29:00,
2013-12-28 14:44:00,61.0,23.9,29.81,WSW,247,7.0,17.0,24,0.00,,,-99.99,Weather View 32 v60,2013-12-28 20:44:00,
2013-12-28 14:59:00,62.0,24.7,29.81,West,270,6.0,17.0,24,0.00,,,-99.99,Weather View 32 v60,2013-12-28 20:59:00,
2013-12-28 15:14:00,57.0,31.6,29.85,WNW,292,9.0,19.0,38,0.00,,,-99.99,Weather View 32 v60,2013-12-28 21:14:00,
2013-12-28 15:29:00,54.0,32.0,29.87,WNW,292,6.0,23.0,43,0.00,,,-99.99,Weather View 32 v60,2013-12-28 21:29:00,
2013-12-28 15:44:00,52.0,32.4,29.89,NNW,337,7.0,24.0,47,0.00,,,-99.99,Weather View 32 v60,2013-12-28 21:44:00,
2013-12-28 15:59:00,49.0,33.0,29.92,NW,315,9.0,31.0,54,0.00,,,-99.99,Weather View 32 v60,2013-12-28 21:59:00,
2013-12-28 16:14:00,47.0,32.5,29.93,WNW,292,12.0,31.0,57,0.00,,,-99.99,Weather View 32 v60,2013-12-28 22:14:00,
2013-12-28 16:29:00,45.0,32.7,29.95,West,270,9.0,31.0,62,0.00,,,-99.99,Weather View 32 v60,2013-12-28 22:29:00,
2013-12-28 16:44:00,43.0,32.4,29.97,NNE,22,4.0,31.0,66,0.00,,,-99.99,Weather View 32 v60,2013-12-28 22:44:00,
2013-12-28 16:59:00,40.0,31.0,29.99,WNW,292,10.0,30.0,70,0.00,,,-99.99,Weather View 32 v60,2013-12-28 22:59:00,
2013-12-28 17:14:00,39.0,31.4,30.01,WNW,292,6.0,29.0,74,0.00,,,-99.99,Weather View 32 v60,2013-12-28 23:14:00,
2013-12-28 17:29:00,37.0,30.1,30.01,North,360,16.0,36.0,76,0.00,,,-99.99,Weather View 32 v60,2013-12-28 23:29:00,
2013-12-28 17:44:00,36.0,30.1,30.05,NNW,337,13.0,36.0,79,0.00,,,-99.99,Weather View 32 v60,2013-12-28 23:44:00,
2013-12-28 17:59:00,35.0,30.1,30.06,NW,315,6.0,36.0,82,0.00,,,-99.99,Weather View 32 v60,2013-12-28 23:59:00,
2013-12-28 18:14:00,31.0,27.6,30.10,NNE,22,23.0,39.0,87,0.00,,,-99.99,Weather View 32 v60,2013-12-29 00:14:00,
2013-12-28 18:19:00,31.0,27.6,30.10,NNE,22,23.0,39.0,87,0.00,,,-99.99,Weather View 32 v60,2013-12-29 00:19:00,
2013-12-28 18:29:00,29.0,25.9,30.12,NW,315,8.0,40.0,88,0.00,,,-99.99,Weather View 32 v60,2013-12-29 00:29:00,
2013-12-28 18:44:00,27.0,23.9,30.14,NW,315,11.0,40.0,88,0.00,,,-99.99,Weather View 32 v60,2013-12-29 00:44:00,
2013-12-28 18:59:00,26.0,23.2,30.15,NNW,337,22.0,40.0,89,0.00,,,-99.99,Weather View 32 v60,2013-12-29 00:59:00,
2013-12-28 19:14:00,23.0,20.0,30.17,North,360,12.0,40.0,88,0.00,,,-99.99,Weather View 32 v60,2013-12-29 01:14:00,
2013-12-28 19:20:00,23.0,20.0,30.17,North,360,12.0,40.0,88,0.00,,,-99.99,Weather View 32 v60,2013-12-29 01:20:00,
2013-12-28 19:29:00,21.0,17.7,30.21,NNW,337,16.0,39.0,87,0.00,,,-99.99,Weather View 32 v60,2013-12-29 01:29:00,
2013-12-28 19:44:00,20.0,16.8,30.23,WNW,292,3.0,44.0,87,0.00,,,-99.99,Weather View 32 v60,2013-12-29 01:44:00,
2013-12-28 19:59:00,18.0,14.5,30.24,WSW,247,12.0,44.0,86,0.00,,,-99.99,Weather View 32 v60,2013-12-29 01:59:00,
2013-12-28 20:14:00,17.0,13.8,30.25,North,360,12.0,44.0,87,0.00,,,-99.99,Weather View 32 v60,2013-12-29 02:14:00,
2013-12-28 20:20:00,17.0,13.8,30.25,North,360,12.0,44.0,87,0.00,,,-99.99,Weather View 32 v60,2013-12-29 02:20:00,
2013-12-28 20:29:00,15.0,12.1,30.27,NNW,337,16.0,46.0,88,0.01,,,-99.99,Weather View 32 v60,2013-12-29 02:29:00,
2013-12-28 20:44:00,15.0,12.1,30.28,NNW,337,18.0,46.0,88,0.01,,,-99.99,Weather View 32 v60,2013-12-29 02:44:00,
2013-12-28 20:59:00,14.0,11.1,30.29,NNW,337,9.0,46.0,88,0.01,,,-99.99,Weather View 32 v60,2013-12-29 02:59:00,
2013-12-28 21:14:00,13.0,10.4,30.29,NW,315,24.0,46.0,89,0.01,,,-99.99,Weather View 32 v60,2013-12-29 03:14:00,
2013-12-28 21:21:00,13.0,10.4,30.29,NW,315,24.0,46.0,89,0.01,,,-99.99,Weather View 32 v60,2013-12-29 03:21:00,
2013-12-28 21:29:00,12.0,9.9,30.32,WNW,292,5.0,41.0,91,0.00,,,-99.99,Weather View 32 v60,2013-12-29 03:29:00,
2013-12-28 21:44:00,11.0,8.9,30.34,NNE,22,6.0,43.0,91,0.00,,,-99.99,Weather View 32 v60,2013-12-29 03:44:00,
2013-12-28 21:59:00,10.0,7.4,30.34,NNE,22,6.0,43.0,89,0.00,,,-99.99,Weather View 32 v60,2013-12-29 03:59:00,
2013-12-28 22:14:00,9.0,6.9,30.36,NNW,337,13.0,43.0,91,0.00,,,-99.99,Weather View 32 v60,2013-12-29 04:14:00,
2013-12-28 22:21:00,9.0,6.9,30.36,NNW,337,13.0,43.0,91,0.00,,,-99.99,Weather View 32 v60,2013-12-29 04:21:00,
2013-12-28 22:29:00,9.0,7.2,30.36,NNW,337,7.0,43.0,92,0.02,,,-99.99,Weather View 32 v60,2013-12-29 04:29:00,
2013-12-28 22:44:00,8.0,6.2,30.37,NNE,22,19.0,38.0,92,0.02,,,-99.99,Weather View 32 v60,2013-12-29 04:44:00,
2013-12-28 22:59:00,7.0,4.9,30.40,NNW,337,15.0,38.0,91,0.02,,,-99.99,Weather View 32 v60,2013-12-29 04:59:00,
2013-12-28 23:14:00,7.0,5.6,30.40,WNW,292,12.0,38.0,94,0.02,,,-99.99,Weather View 32 v60,2013-12-29 05:14:00,
2013-12-28 23:22:00,7.0,5.6,30.40,WNW,292,12.0,38.0,94,0.02,,,-99.99,Weather View 32 v60,2013-12-29 05:22:00,
2013-12-28 23:29:00,7.0,5.6,30.40,NNW,337,22.0,36.0,94,0.00,,,-99.99,Weather View 32 v60,2013-12-29 05:29:00,
2013-12-28 23:44:00,6.0,4.9,30.41,NNW,337,12.0,37.0,95,0.00,,,-99.99,Weather View 32 v60,2013-12-29 05:44:00,
2013-12-28 23:59:00,6.0,4.4,30.41,NNW,337,17.0,37.0,93,0.00,,,-99.99,Weather View 32 v60,2013-12-29 05:59:00,